Torna al catalogo

STARLINK-5149

AttivoComunicazioniVLEO
NORAD 53981·PAYLOAD·🇺🇸 United States

Lanciato Oct 5, 2022 da Vandenberg Space Force Base

Loading…

Prossimi Passaggi (prossime 24 ore)

TLE

AggiornatoSource: CelesTrak SupGP

Epoca: Sep 14, 2026, 21:14 UTC

1 53981C 22125T   26257.88520833  .00050115  00000+0  16125-2 0  2572
2 53981  53.1600  63.4770 0001107  90.4866  56.7372 15.31658841    15

Traccia STARLINK-5149 in tempo reale con AllMySat

Download on the App Store